Location: New Plymouth
(39.0670°S, 174.0830°E)
Time: 02:40:47
(UTC+13:00)

USA 186 - Pass Details

Date: 24 January 2019
Orbit: 262 x 443 km, 96.9° (Epoch: 04 October)

Event Time Altitude Azimuth Distance (km) Brightness Sun altitude
Rises 21:24:26 0° 160° (SSE) 2,246 5.6 -7.3°
Reaches altitude 10° 21:26:34 10° 150° (SSE) 1,356 4.4 -7.7°
Maximum altitude 21:29:13 32° 83° (E) 618 2.1 -8.1°
Drops below altitude 10° 21:31:41 10° 16° (NNE) 1,258 3.7 -8.5°
Enters shadow 21:32:28 - 10° (N) 1,580 4.3 -8.6°
